TimeEST,TemperatureF,Dew PointF,Humidity,Sea Level PressureIn,VisibilityMPH,Wind Direction,Wind SpeedMPH,Gust SpeedMPH,PrecipitationIn,Events,Conditions,WindDirDegrees,DateUTC
12:51 AM,33.1,25.0,72,30.44,10.0,NW,4.6,-,N/A,,Overcast,320,2012-02-03 05:51:00
1:51 AM,32.0,25.0,75,30.45,10.0,WNW,3.5,-,N/A,,Overcast,300,2012-02-03 06:51:00
2:51 AM,32.0,24.1,73,30.46,10.0,West,3.5,-,N/A,,Overcast,280,2012-02-03 07:51:00
3:51 AM,30.0,24.1,79,30.47,10.0,Calm,Calm,-,N/A,,Overcast,0,2012-02-03 08:51:00
4:20 AM,30.2,24.8,80,30.43,10.0,Calm,Calm,-,N/A,,Scattered Clouds,0,2012-02-03 09:20:00
4:51 AM,28.9,24.1,82,30.48,10.0,Calm,Calm,-,N/A,,Scattered Clouds,0,2012-02-03 09:51:00
5:51 AM,28.0,23.0,81,30.51,10.0,Calm,Calm,-,N/A,,Partly Cloudy,0,2012-02-03 10:51:00
6:51 AM,25.0,23.0,92,30.52,10.0,Calm,Calm,-,N/A,,Partly Cloudy,0,2012-02-03 11:51:00
7:51 AM,25.0,21.9,88,30.53,9.0,East,3.5,-,N/A,,Scattered Clouds,100,2012-02-03 12:51:00
8:51 AM,32.0,26.1,79,30.53,10.0,SE,3.5,-,N/A,,Partly Cloudy,140,2012-02-03 13:51:00
9:51 AM,34.0,27.0,75,30.51,10.0,SE,5.8,-,N/A,,Clear,130,2012-02-03 14:51:00
10:51 AM,36.0,27.0,70,30.51,10.0,South,3.5,-,N/A,,Partly Cloudy,190,2012-02-03 15:51:00
11:51 AM,39.0,28.9,67,30.49,10.0,SW,8.1,-,N/A,,Partly Cloudy,220,2012-02-03 16:51:00
12:51 PM,41.0,28.9,62,30.46,10.0,Variable,5.8,-,N/A,,Partly Cloudy,0,2012-02-03 17:51:00
1:51 PM,44.1,28.9,55,30.42,10.0,Variable,5.8,-,N/A,,Scattered Clouds,0,2012-02-03 18:51:00
2:51 PM,45.0,28.0,52,30.40,10.0,NW,4.6,-,N/A,,Scattered Clouds,310,2012-02-03 19:51:00
3:51 PM,45.0,28.0,52,30.39,10.0,Calm,Calm,-,N/A,,Scattered Clouds,0,2012-02-03 20:51:00
4:51 PM,44.1,28.0,53,30.40,10.0,SW,4.6,-,N/A,,Scattered Clouds,230,2012-02-03 21:51:00
5:51 PM,42.1,27.0,55,30.41,10.0,Calm,Calm,-,N/A,,Scattered Clouds,0,2012-02-03 22:51:00
6:51 PM,37.0,26.1,65,30.42,10.0,Calm,Calm,-,N/A,,Scattered Clouds,0,2012-02-03 23:51:00
7:51 PM,30.9,25.0,79,30.41,10.0,ESE,3.5,-,N/A,,Partly Cloudy,110,2012-02-04 00:51:00
8:51 PM,34.0,26.1,73,30.38,10.0,South,3.5,-,N/A,,Mostly Cloudy,170,2012-02-04 01:51:00
9:51 PM,34.0,28.0,79,30.38,10.0,NNE,9.2,-,N/A,,Mostly Cloudy,30,2012-02-04 02:51:00
10:51 PM,33.1,27.0,78,30.37,10.0,ENE,5.8,-,N/A,,Scattered Clouds,70,2012-02-04 03:51:00
11:51 PM,32.0,26.1,79,30.36,10.0,NE,4.6,-,N/A,,Scattered Clouds,50,2012-02-04 04:51:00